| time (UTC) | temp F | wind direction | speed MPH | gust MPH | rain 1hr in | rain 24hr in | rain mn in | humidity % | barometer mb |
| 20260903084553 | 58 | 0 | 0.0 | 2.0 | 0.00 | 0.05 | 0.05 | 96 | 1015.7 |
| 20260903084030 | 58 | 0 | 0.0 | 1.0 | 0.00 | 0.05 | 0.05 | 96 | 1015.7 |
| 20260903083530 | 58 | 0 | 0.0 | 2.0 | 0.00 | 0.05 | 0.05 | 96 | 1015.8 |
| 20260903083048 | 58 | 0 | 0.0 | 2.0 | 0.00 | 0.05 | 0.05 | 96 | 1015.6 |
| 20260903082527 | 58 | 0 | 0.0 | 2.0 | 0.00 | 0.05 | 0.05 | 96 | 1015.7 |
| 20260903082027 | 58 | 0 | 0.0 | 2.0 | 0.00 | 0.05 | 0.05 | 96 | 1015.8 |
| 20260903081544 | 58 | 0 | 0.0 | 2.0 | 0.00 | 0.05 | 0.05 | 96 | 1015.8 |
| 20260903081030 | 58 | 169 | 0.0 | 3.0 | 0.00 | 0.05 | 0.05 | 96 | 1015.9 |
| 20260903080530 | 58 | 0 | 0.0 | 3.0 | 0.00 | 0.05 | 0.05 | 96 | 1015.8 |
| 20260903080056 | 58 | 0 | 0.0 | 4.0 | 0.00 | 0.05 | 0.05 | 95 | 1015.9 |
| 20260903075530 | 58 | 0 | 1.0 | 4.0 | 0.00 | 0.05 | 0.05 | 95 | 1016.0 |
| 20260903075029 | 58 | 167 | 1.0 | 6.0 | 0.00 | 0.05 | 0.05 | 95 | 1015.9 |
| 20260903074540 | 58 | 168 | 1.0 | 6.0 | 0.00 | 0.05 | 0.05 | 95 | 1016.1 |
| 20260903074030 | 58 | 161 | 0.0 | 7.0 | 0.00 | 0.05 | 0.05 | 95 | 1015.9 |
| 20260903073532 | 58 | 215 | 1.0 | 7.0 | 0.01 | 0.05 | 0.05 | 95 | 1016.0 |
| 20260903073048 | 58 | 166 | 1.0 | 4.0 | 0.01 | 0.05 | 0.05 | 95 | 1016.1 |
| 20260903072530 | 58 | 207 | 1.0 | 3.0 | 0.02 | 0.05 | 0.05 | 95 | 1016.2 |
| 20260903072032 | 58 | 0 | 0.0 | 3.0 | 0.04 | 0.05 | 0.05 | 95 | 1016.2 |
| 20260903071545 | 58 | 0 | 0.0 | 3.0 | 0.04 | 0.05 | 0.05 | 95 | 1016.2 |
| 20260903071030 | 58 | 5 | 0.0 | 3.0 | 0.05 | 0.05 | 0.05 | 95 | 1016.3 |
| 20260903070530 | 58 | 0 | 0.0 | 4.0 | 0.05 | 0.05 | 0.05 | 95 | 1016.1 |
| 20260903070045 | 58 | 0 | 0.0 | 5.0 | 0.05 | 0.05 | 0.05 | 95 | 1016.0 |
| 20260903065530 | 58 | 64 | 1.0 | 5.0 | 0.05 | 0.05 | 0.05 | 95 | 1016.0 |
| 20260903065029 | 58 | 0 | 0.0 | 3.0 | 0.05 | 0.05 | 0.05 | 95 | 1015.9 |
| 20260903064601 | 58 | 0 | 1.0 | 4.0 | 0.05 | 0.05 | 0.05 | 94 | 1016.0 |
| 20260903064029 | 58 | 0 | 1.0 | 4.0 | 0.05 | 0.05 | 0.05 | 94 | 1016.1 |
| 20260903063530 | 58 | 69 | 1.0 | 4.0 | 0.04 | 0.04 | 0.04 | 94 | 1016.3 |
| 20260903063051 | 59 | 0 | 1.0 | 4.0 | 0.04 | 0.04 | 0.04 | 94 | 1016.2 |
| 20260903062527 | 59 | 150 | 1.0 | 4.0 | 0.02 | 0.02 | 0.02 | 94 | 1016.3 |
| 20260903062027 | 59 | 0 | 0.0 | 3.0 | 0.01 | 0.01 | 0.01 | 94 | 1016.2 |
| 20260903061547 | 59 | 28 | 0.0 | 4.0 | 0.01 | 0.01 | 0.01 | 94 | 1016.3 |
| 20260903061030 | 59 | 0 | 1.0 | 4.0 | 0.00 | 0.00 | 0.00 | 94 | 1016.5 |
| 20260903060530 | 59 | 290 | 0.0 | 4.0 | 0.00 | 0.00 | 0.00 | 94 | 1016.7 |
| 20260903060044 | 59 | 85 | 0.0 | 4.0 | 0.00 | 0.00 | 0.00 | 93 | 1016.7 |
| 20260903055530 | 59 | 0 | 1.0 | 4.0 | 0.00 | 0.00 | 0.00 | 93 | 1016.8 |
| 20260903055029 | 59 | 134 | 1.0 | 4.0 | 0.00 | 0.00 | 0.00 | 93 | 1017.0 |
| 20260903054557 | 59 | 0 | 0.0 | 4.0 | 0.00 | 0.00 | 0.00 | 93 | 1017.0 |
| 20260903054030 | 59 | 153 | 0.0 | 4.0 | 0.00 | 0.00 | 0.00 | 93 | 1017.2 |
| 20260903053529 | 59 | 0 | 0.0 | 5.0 | 0.00 | 0.00 | 0.00 | 93 | 1017.5 |
| 20260903053104 | 59 | 170 | 1.0 | 7.0 | 0.00 | 0.00 | 0.00 | 93 | 1017.5 |
| 20260903052532 | 59 | 152 | 1.0 | 7.0 | 0.00 | 0.00 | 0.00 | 93 | 1017.5 |
| 20260903052031 | 59 | 141 | 1.0 | 6.0 | 0.00 | 0.00 | 0.00 | 93 | 1017.6 |
| 20260903051553 | 59 | 163 | 2.0 | 6.0 | 0.00 | 0.00 | 0.00 | 93 | 1017.6 |
| 20260903051029 | 59 | 171 | 0.0 | 6.0 | 0.00 | 0.00 | 0.00 | 93 | 1017.7 |
| 20260903050529 | 59 | 140 | 2.0 | 6.0 | 0.00 | 0.00 | 0.00 | 93 | 1017.7 |
| 20260903050056 | 60 | 152 | 1.0 | 4.0 | 0.00 | 0.00 | 0.00 | 93 | 1017.7 |
| 20260903045530 | 60 | 144 | 1.0 | 4.0 | 0.00 | 0.01 | 0.00 | 93 | 1017.8 |
| 20260903045030 | 60 | 162 | 1.0 | 4.0 | 0.00 | 0.01 | 0.00 | 94 | 1017.8 |
| 20260903044544 | 60 | 0 | 0.0 | 3.0 | 0.00 | 0.01 | 0.00 | 94 | 1017.8 |
| 20260903044027 | 60 | 0 | 0.0 | 3.0 | 0.00 | 0.01 | 0.00 | 93 | 1017.7 |
| 20260903043529 | 60 | 116 | 0.0 | 4.0 | 0.00 | 0.01 | 0.00 | 93 | 1017.6 |
| 20260903043043 | 60 | 154 | 1.0 | 4.0 | 0.00 | 0.01 | 0.00 | 93 | 1017.6 |
| 20260903042535 | 60 | 155 | 0.0 | 3.0 | 0.00 | 0.01 | 0.00 | 93 | 1017.6 |
| 20260903042029 | 60 | 0 | 0.0 | 3.0 | 0.00 | 0.01 | 0.00 | 93 | 1017.7 |
| 20260903041608 | 60 | 193 | 0.0 | 2.0 | 0.00 | 0.01 | 0.00 | 93 | 1017.7 |
| 20260903041033 | 60 | 0 | 0.0 | 2.0 | 0.00 | 0.01 | 0.00 | 93 | 1017.6 |
| 20260903040529 | 60 | 0 | 0.0 | 3.0 | 0.00 | 0.01 | 0.00 | 93 | 1017.7 |
| 20260903035533 | 60 | 160 | 0.0 | 3.0 | 0.00 | 0.01 | 0.01 | 92 | 1017.9 |
| 20260903035028 | 60 | 0 | 0.0 | 4.0 | 0.00 | 0.01 | 0.01 | 92 | 1018.1 |
| 20260903034545 | 60 | 157 | 1.0 | 4.0 | 0.00 | 0.01 | 0.01 | 92 | 1018.1 |
| 20260903034028 | 60 | 0 | 0.0 | 4.0 | 0.00 | 0.01 | 0.01 | 92 | 1018.1 |
| 20260903033528 | 60 | 44 | 0.0 | 4.0 | 0.00 | 0.01 | 0.01 | 91 | 1018.2 |
| 20260903033045 | 60 | 0 | 1.0 | 4.0 | 0.00 | 0.01 | 0.01 | 91 | 1018.4 |
| 20260903032528 | 60 | 0 | 0.0 | 5.0 | 0.00 | 0.01 | 0.01 | 91 | 1018.4 |
| 20260903032029 | 60 | 0 | 0.0 | 7.0 | 0.00 | 0.01 | 0.01 | 91 | 1018.4 |
| 20260903031551 | 60 | 184 | 0.0 | 7.0 | 0.00 | 0.01 | 0.01 | 91 | 1018.6 |
| 20260903031027 | 60 | 0 | 1.0 | 7.0 | 0.00 | 0.01 | 0.01 | 91 | 1018.6 |
| 20260903030532 | 60 | 149 | 1.0 | 7.0 | 0.00 | 0.01 | 0.01 | 90 | 1018.7 |
| 20260903030051 | 60 | 129 | 1.0 | 6.0 | 0.00 | 0.01 | 0.01 | 91 | 1018.8 |
| 20260903025528 | 60 | 171 | 0.0 | 4.0 | 0.00 | 0.01 | 0.01 | 91 | 1019.1 |
| 20260903025027 | 60 | 171 | 1.0 | 4.0 | 0.00 | 0.01 | 0.01 | 92 | 1019.0 |
| 20260903024547 | 60 | 0 | 1.0 | 4.0 | 0.00 | 0.01 | 0.01 | 92 | 1018.8 |
| 20260903024028 | 60 | 0 | 1.0 | 4.0 | 0.00 | 0.01 | 0.01 | 92 | 1018.8 |
| 20260903023529 | 60 | 174 | 0.0 | 4.0 | 0.00 | 0.01 | 0.01 | 92 | 1018.8 |
| 20260903023043 | 61 | 152 | 1.0 | 5.0 | 0.00 | 0.01 | 0.01 | 92 | 1018.8 |
| 20260903022530 | 61 | 0 | 0.0 | 5.0 | 0.00 | 0.01 | 0.01 | 92 | 1018.7 |
| 20260903022027 | 60 | 188 | 1.0 | 5.0 | 0.00 | 0.01 | 0.01 | 92 | 1018.9 |
| 20260903021552 | 61 | 0 | 0.0 | 4.0 | 0.00 | 0.01 | 0.01 | 92 | 1019.0 |
| 20260903021030 | 61 | 119 | 0.0 | 4.0 | 0.00 | 0.01 | 0.01 | 92 | 1019.1 |
| 20260903020528 | 61 | 169 | 0.0 | 3.0 | 0.00 | 0.01 | 0.01 | 92 | 1019.2 |
| 20260903020049 | 61 | 0 | 0.0 | 3.0 | 0.00 | 0.01 | 0.01 | 92 | 1019.0 |
| 20260903015530 | 61 | 196 | 0.0 | 3.0 | 0.00 | 0.02 | 0.01 | 92 | 1019.1 |
| 20260903015029 | 61 | 0 | 0.0 | 5.0 | 0.00 | 0.02 | 0.01 | 92 | 1019.4 |
| 20260903014550 | 61 | 134 | 1.0 | 5.0 | 0.00 | 0.02 | 0.01 | 92 | 1019.5 |
| 20260903014028 | 61 | 163 | 0.0 | 6.0 | 0.00 | 0.02 | 0.01 | 92 | 1019.5 |
| 20260903013529 | 61 | 188 | 2.0 | 6.0 | 0.00 | 0.02 | 0.01 | 92 | 1019.4 |
| 20260903013044 | 61 | 0 | 0.0 | 4.0 | 0.00 | 0.02 | 0.01 | 92 | 1019.4 |
| 20260903012527 | 61 | 146 | 0.0 | 4.0 | 0.00 | 0.02 | 0.01 | 92 | 1019.3 |
| 20260903012028 | 61 | 146 | 1.0 | 4.0 | 0.00 | 0.02 | 0.01 | 91 | 1019.3 |
| 20260903011554 | 61 | 138 | 1.0 | 6.0 | 0.00 | 0.02 | 0.01 | 91 | 1019.1 |
| 20260903011028 | 61 | 0 | 1.0 | 6.0 | 0.00 | 0.02 | 0.01 | 91 | 1019.2 |
| 20260903010527 | 61 | 144 | 2.0 | 8.0 | 0.00 | 0.02 | 0.01 | 91 | 1019.2 |
| 20260903010051 | 61 | 0 | 1.0 | 8.0 | 0.00 | 0.02 | 0.01 | 91 | 1019.2 |
| 20260903005529 | 61 | 162 | 1.0 | 6.0 | 0.00 | 0.03 | 0.01 | 91 | 1019.2 |
| 20260903005035 | 61 | 151 | 1.0 | 6.0 | 0.00 | 0.03 | 0.01 | 91 | 1019.1 |
| 20260903004555 | 61 | 140 | 1.0 | 6.0 | 0.00 | 0.03 | 0.01 | 90 | 1018.9 |
| 20260903004028 | 61 | 0 | 0.0 | 5.0 | 0.00 | 0.03 | 0.01 | 90 | 1018.7 |
| 20260903003530 | 61 | 76 | 1.0 | 5.0 | 0.00 | 0.03 | 0.01 | 90 | 1019.1 |
| 20260903003044 | 61 | 131 | 0.0 | 5.0 | 0.00 | 0.03 | 0.01 | 90 | 1019.0 |
| 20260903002529 | 61 | 0 | 1.0 | 5.0 | 0.00 | 0.03 | 0.01 | 90 | 1018.8 |
| 20260903002032 | 61 | 174 | 1.0 | 5.0 | 0.00 | 0.03 | 0.01 | 90 | 1018.5 |
| 20260903001557 | 62 | 147 | 1.0 | 5.0 | 0.00 | 0.03 | 0.01 | 90 | 1018.5 |
| 20260903001029 | 62 | 159 | 0.0 | 4.0 | 0.00 | 0.03 | 0.01 | 91 | 1018.7 |
| 20260903000529 | 62 | 0 | 1.0 | 5.0 | 0.00 | 0.03 | 0.01 | 90 | 1018.9 |
| 20260903000041 | 62 | 149 | 1.0 | 5.0 | 0.00 | 0.03 | 0.01 | 90 | 1018.9 |
| 20260902235529 | 62 | 148 | 1.0 | 4.0 | 0.00 | 0.05 | 0.01 | 90 | 1018.4 |
| 20260902235027 | 62 | 138 | 0.0 | 3.0 | 0.00 | 0.05 | 0.01 | 91 | 1018.7 |
| 20260902234547 | 62 | 0 | 0.0 | 3.0 | 0.00 | 0.05 | 0.01 | 90 | 1018.9 |
| 20260902234030 | 62 | 0 | 0.0 | 3.0 | 0.00 | 0.05 | 0.01 | 90 | 1018.9 |
| 20260902233529 | 62 | 0 | 0.0 | 2.0 | 0.00 | 0.05 | 0.01 | 90 | 1018.9 |
| 20260902233044 | 62 | 0 | 0.0 | 1.0 | 0.00 | 0.05 | 0.01 | 90 | 1019.3 |
| 20260902232527 | 62 | 0 | 0.0 | 1.0 | 0.00 | 0.05 | 0.01 | 90 | 1019.4 |
| 20260902232030 | 62 | 0 | 0.0 | 2.0 | 0.00 | 0.05 | 0.01 | 90 | 1019.5 |
| 20260902231543 | 62 | 0 | 0.0 | 2.0 | 0.00 | 0.05 | 0.01 | 90 | 1019.7 |
| 20260902231028 | 62 | 0 | 0.0 | 2.0 | 0.00 | 0.05 | 0.01 | 90 | 1019.8 |
| 20260902230528 | 62 | 0 | 0.0 | 4.0 | 0.00 | 0.05 | 0.01 | 90 | 1020.0 |
| 20260902230054 | 62 | 0 | 0.0 | 4.0 | 0.00 | 0.05 | 0.01 | 90 | 1020.2 |
| 20260902225530 | 62 | 171 | 0.0 | 2.0 | 0.00 | 0.05 | 0.01 | 89 | 1020.1 |
| 20260902225030 | 62 | 172 | 0.0 | 2.0 | 0.00 | 0.05 | 0.01 | 89 | 1020.2 |
| 20260902224554 | 63 | 0 | 0.0 | 2.0 | 0.00 | 0.05 | 0.01 | 89 | 1020.2 |
| 20260902224028 | 63 | 0 | 0.0 | 2.0 | 0.00 | 0.05 | 0.01 | 89 | 1020.3 |
| 20260902223532 | 63 | 138 | 0.0 | 2.0 | 0.00 | 0.05 | 0.01 | 89 | 1020.4 |
| 20260902223043 | 63 | 0 | 0.0 | 2.0 | 0.00 | 0.05 | 0.01 | 89 | 1020.4 |
| 20260902222530 | 63 | 125 | 0.0 | 5.0 | 0.00 | 0.05 | 0.01 | 88 | 1020.5 |
| 20260902222032 | 63 | 0 | 0.0 | 5.0 | 0.00 | 0.05 | 0.01 | 89 | 1020.4 |
| 20260902221554 | 63 | 56 | 0.0 | 3.0 | 0.00 | 0.05 | 0.01 | 88 | 1020.4 |
| 20260902221027 | 63 | 153 | 0.0 | 4.0 | 0.00 | 0.05 | 0.01 | 88 | 1020.5 |
| 20260902220529 | 63 | 0 | 0.0 | 4.0 | 0.00 | 0.05 | 0.01 | 88 | 1020.1 |
| 20260902220053 | 63 | 0 | 0.0 | 2.0 | 0.00 | 0.05 | 0.01 | 88 | 1020.3 |
| 20260902215528 | 63 | 0 | 0.0 | 4.0 | 0.00 | 0.05 | 0.01 | 88 | 1020.4 |
| 20260902215027 | 63 | 168 | 0.0 | 4.0 | 0.00 | 0.05 | 0.01 | 88 | 1020.4 |
| 20260902214553 | 63 | 169 | 1.0 | 4.0 | 0.00 | 0.05 | 0.01 | 87 | 1020.4 |
| 20260902214028 | 63 | 174 | 0.0 | 4.0 | 0.00 | 0.05 | 0.01 | 87 | 1020.4 |
| 20260902213529 | 63 | 167 | 1.0 | 4.0 | 0.00 | 0.05 | 0.01 | 87 | 1020.3 |
| 20260902213051 | 63 | 179 | 1.0 | 3.0 | 0.00 | 0.05 | 0.01 | 88 | 1020.2 |
| 20260902212527 | 63 | 0 | 0.0 | 3.0 | 0.00 | 0.05 | 0.01 | 87 | 1020.3 |
| 20260902212027 | 63 | 0 | 0.0 | 3.0 | 0.00 | 0.05 | 0.01 | 87 | 1020.1 |
| 20260902211544 | 64 | 188 | 0.0 | 4.0 | 0.00 | 0.05 | 0.01 | 87 | 1020.2 |
| 20260902211030 | 63 | 165 | 0.0 | 4.0 | 0.00 | 0.05 | 0.01 | 87 | 1020.5 |
| 20260902210532 | 64 | 0 | 0.0 | 3.0 | 0.00 | 0.05 | 0.01 | 87 | 1020.5 |
| 20260902210042 | 64 | 0 | 0.0 | 3.0 | 0.00 | 0.05 | 0.01 | 87 | 1020.5 |
| 20260902205529 | 64 | 153 | 1.0 | 3.0 | 0.00 | 0.05 | 0.01 | 87 | 1020.4 |
| 20260902205029 | 64 | 0 | 0.0 | 4.0 | 0.00 | 0.05 | 0.01 | 87 | 1020.3 |
| 20260902204550 | 64 | 0 | 1.0 | 5.0 | 0.00 | 0.05 | 0.01 | 86 | 1020.5 |
| 20260902204029 | 64 | 140 | 0.0 | 5.0 | 0.00 | 0.05 | 0.01 | 86 | 1020.6 |
| 20260902203530 | 64 | 153 | 0.0 | 5.0 | 0.00 | 0.05 | 0.01 | 86 | 1020.6 |
| 20260902203056 | 64 | 146 | 0.0 | 5.0 | 0.00 | 0.05 | 0.01 | 86 | 1020.5 |
| 20260902202530 | 64 | 170 | 1.0 | 6.0 | 0.00 | 0.05 | 0.01 | 85 | 1020.4 |
| 20260902202032 | 64 | 0 | 2.0 | 7.0 | 0.00 | 0.05 | 0.01 | 85 | 1020.5 |
| 20260902201625 | 64 | 138 | 0.0 | 7.0 | 0.00 | 0.05 | 0.01 | 86 | 1020.4 |
| 20260902201034 | 64 | 172 | 1.0 | 6.0 | 0.00 | 0.05 | 0.01 | 85 | 1020.5 |
| 20260902200531 | 65 | 0 | 0.0 | 4.0 | 0.00 | 0.05 | 0.01 | 84 | 1020.5 |
| 20260902200044 | 65 | 0 | 1.0 | 4.0 | 0.00 | 0.05 | 0.01 | 84 | 1020.5 |
| 20260902195531 | 65 | 0 | 1.0 | 4.0 | 0.00 | 0.05 | 0.01 | 84 | 1020.5 |
| 20260902195029 | 65 | 0 | 1.0 | 5.0 | 0.00 | 0.05 | 0.01 | 85 | 1020.7 |
| 20260902194600 | 65 | 152 | 0.0 | 6.0 | 0.00 | 0.05 | 0.01 | 84 | 1020.7 |
| 20260902194031 | 65 | 173 | 2.0 | 12.0 | 0.00 | 0.05 | 0.01 | 83 | 1020.8 |
| 20260902193531 | 65 | 0 | 2.0 | 12.0 | 0.00 | 0.05 | 0.01 | 83 | 1020.8 |
| 20260902193050 | 66 | 174 | 1.0 | 6.0 | 0.00 | 0.05 | 0.01 | 82 | 1020.7 |
| 20260902192531 | 65 | 113 | 1.0 | 6.0 | 0.00 | 0.05 | 0.01 | 85 | 1020.9 |
| 20260902192029 | 65 | 146 | 2.0 | 6.0 | 0.00 | 0.05 | 0.01 | 85 | 1020.9 |
| 20260902191558 | 65 | 213 | 0.0 | 4.0 | 0.00 | 0.05 | 0.01 | 86 | 1021.0 |
| 20260902191030 | 64 | 244 | 0.0 | 2.0 | 0.00 | 0.05 | 0.01 | 86 | 1021.2 |
| 20260902190529 | 64 | 0 | 0.0 | 3.0 | 0.00 | 0.05 | 0.01 | 87 | 1021.2 |
| 20260902190053 | 64 | 202 | 0.0 | 3.0 | 0.00 | 0.05 | 0.01 | 86 | 1021.3 |
| 20260902185530 | 64 | 161 | 0.0 | 4.0 | 0.00 | 0.05 | 0.01 | 86 | 1021.4 |
| 20260902185033 | 64 | 0 | 0.0 | 4.0 | 0.00 | 0.05 | 0.01 | 85 | 1021.5 |
| 20260902184546 | 64 | 0 | 0.0 | 4.0 | 0.00 | 0.05 | 0.01 | 86 | 1021.6 |
| 20260902184030 | 64 | 163 | 0.0 | 4.0 | 0.00 | 0.05 | 0.01 | 86 | 1021.6 |
| 20260902183529 | 64 | 0 | 0.0 | 5.0 | 0.00 | 0.05 | 0.01 | 86 | 1021.6 |
| 20260902183051 | 64 | 172 | 2.0 | 5.0 | 0.00 | 0.05 | 0.01 | 86 | 1021.5 |
| 20260902182531 | 64 | 0 | 1.0 | 5.0 | 0.00 | 0.05 | 0.01 | 85 | 1021.3 |
| 20260902182029 | 64 | 0 | 1.0 | 5.0 | 0.00 | 0.05 | 0.01 | 85 | 1021.3 |
| 20260902181606 | 64 | 155 | 2.0 | 5.0 | 0.00 | 0.05 | 0.01 | 84 | 1021.2 |
| 20260902181030 | 64 | 0 | 1.0 | 5.0 | 0.00 | 0.05 | 0.01 | 85 | 1021.3 |
| 20260902180531 | 64 | 155 | 1.0 | 5.0 | 0.00 | 0.05 | 0.01 | 85 | 1021.3 |
| 20260902180047 | 64 | 168 | 1.0 | 4.0 | 0.00 | 0.05 | 0.01 | 85 | 1021.1 |
| 20260902175530 | 64 | 0 | 0.0 | 5.0 | 0.00 | 0.05 | 0.01 | 86 | 1021.2 |
| 20260902175033 | 64 | 117 | 1.0 | 6.0 | 0.00 | 0.05 | 0.01 | 87 | 1021.1 |
| 20260902174549 | 63 | 0 | 0.0 | 6.0 | 0.00 | 0.05 | 0.01 | 87 | 1021.2 |
| 20260902174030 | 63 | 168 | 1.0 | 4.0 | 0.00 | 0.05 | 0.01 | 86 | 1021.3 |
| 20260902173531 | 63 | 149 | 1.0 | 4.0 | 0.00 | 0.05 | 0.01 | 86 | 1021.4 |
| 20260902173043 | 63 | 121 | 1.0 | 5.0 | 0.00 | 0.05 | 0.01 | 86 | 1021.5 |
| 20260902172531 | 63 | 158 | 0.0 | 5.0 | 0.00 | 0.05 | 0.01 | 87 | 1021.7 |
| 20260902172034 | 63 | 180 | 0.0 | 4.0 | 0.00 | 0.05 | 0.01 | 86 | 1021.8 |
| 20260902171614 | 63 | 174 | 0.0 | 3.0 | 0.00 | 0.05 | 0.01 | 86 | 1021.7 |
| 20260902171029 | 63 | 173 | 0.0 | 4.0 | 0.00 | 0.05 | 0.01 | 86 | 1021.7 |
| 20260902170530 | 63 | 161 | 1.0 | 4.0 | 0.00 | 0.05 | 0.01 | 85 | 1021.7 |
| 20260902170042 | 63 | 162 | 0.0 | 4.0 | 0.00 | 0.05 | 0.01 | 85 | 1021.6 |
| 20260902165527 | 63 | 173 | 1.0 | 6.0 | 0.00 | 0.05 | 0.01 | 86 | 1021.6 |
| 20260902165029 | 63 | 185 | 1.0 | 8.0 | 0.00 | 0.05 | 0.01 | 85 | 1021.4 |
| 20260902164545 | 64 | 99 | 1.0 | 8.0 | 0.00 | 0.05 | 0.01 | 86 | 1021.7 |
| 20260902164031 | 64 | 150 | 1.0 | 5.0 | 0.00 | 0.05 | 0.01 | 86 | 1021.5 |
| 20260902163530 | 64 | 184 | 1.0 | 5.0 | 0.00 | 0.05 | 0.01 | 85 | 1021.3 |
| 20260902163043 | 64 | 171 | 1.0 | 4.0 | 0.00 | 0.05 | 0.01 | 86 | 1021.4 |
| 20260902162529 | 63 | 167 | 1.0 | 6.0 | 0.00 | 0.05 | 0.01 | 88 | 1021.6 |
| 20260902162028 | 63 | 168 | 0.0 | 6.0 | 0.00 | 0.05 | 0.01 | 87 | 1021.5 |
| 20260902161553 | 63 | 157 | 2.0 | 5.0 | 0.00 | 0.05 | 0.01 | 86 | 1021.9 |
| 20260902161033 | 63 | 177 | 2.0 | 9.0 | 0.00 | 0.05 | 0.01 | 85 | 1021.9 |
| 20260902160527 | 63 | 165 | 1.0 | 9.0 | 0.00 | 0.05 | 0.01 | 85 | 1022.0 |
| 20260902160043 | 64 | 163 | 1.0 | 7.0 | 0.00 | 0.05 | 0.01 | 86 | 1022.4 |
| 20260902155529 | 64 | 146 | 2.0 | 7.0 | 0.00 | 0.05 | 0.01 | 84 | 1022.4 |
| 20260902155027 | 64 | 172 | 2.0 | 9.0 | 0.00 | 0.05 | 0.01 | 85 | 1022.3 |
| 20260902154543 | 64 | 173 | 2.0 | 9.0 | 0.00 | 0.05 | 0.01 | 85 | 1022.4 |
| 20260902154032 | 64 | 140 | 2.0 | 8.0 | 0.00 | 0.05 | 0.01 | 87 | 1022.3 |
| 20260902153533 | 64 | 171 | 2.0 | 11.0 | 0.00 | 0.05 | 0.01 | 86 | 1022.3 |
| 20260902153044 | 64 | 131 | 3.0 | 11.0 | 0.00 | 0.05 | 0.01 | 85 | 1022.4 |
| 20260902152529 | 64 | 171 | 2.0 | 7.0 | 0.00 | 0.05 | 0.01 | 86 | 1022.5 |
| 20260902152031 | 63 | 127 | 2.0 | 7.0 | 0.00 | 0.05 | 0.01 | 87 | 1022.6 |
| 20260902151545 | 63 | 158 | 2.0 | 7.0 | 0.00 | 0.05 | 0.01 | 87 | 1022.5 |
| 20260902151031 | 63 | 115 | 2.0 | 8.0 | 0.00 | 0.05 | 0.01 | 88 | 1022.6 |
| 20260902150530 | 63 | 132 | 3.0 | 8.0 | 0.00 | 0.05 | 0.01 | 87 | 1022.6 |
| 20260902150039 | 63 | 171 | 2.0 | 7.0 | 0.00 | 0.05 | 0.01 | 88 | 1022.6 |
| 20260902145528 | 63 | 141 | 2.0 | 8.0 | 0.00 | 0.05 | 0.01 | 87 | 1022.4 |
| 20260902145033 | 63 | 131 | 2.0 | 8.0 | 0.00 | 0.05 | 0.01 | 88 | 1022.3 |
| 20260902144551 | 62 | 105 | 2.0 | 8.0 | 0.00 | 0.05 | 0.01 | 88 | 1022.2 |
| 20260902144029 | 62 | 67 | 1.0 | 6.0 | 0.00 | 0.05 | 0.01 | 91 | 1022.4 |
| 20260902143527 | 62 | 173 | 0.0 | 4.0 | 0.00 | 0.05 | 0.01 | 92 | 1022.4 |
| 20260902143047 | 62 | 0 | 1.0 | 3.0 | 0.00 | 0.05 | 0.01 | 91 | 1022.5 |
| 20260902142528 | 61 | 157 | 0.0 | 3.0 | 0.00 | 0.05 | 0.01 | 91 | 1022.5 |
| 20260902142026 | 61 | 179 | 0.0 | 4.0 | 0.00 | 0.05 | 0.01 | 92 | 1022.5 |
| 20260902141547 | 61 | 0 | 0.0 | 5.0 | 0.00 | 0.05 | 0.01 | 92 | 1022.3 |
| 20260902141026 | 61 | 175 | 1.0 | 7.0 | 0.00 | 0.05 | 0.01 | 91 | 1022.2 |
| 20260902140528 | 61 | 162 | 2.0 | 7.0 | 0.00 | 0.05 | 0.01 | 91 | 1022.3 |
| 20260902140039 | 61 | 157 | 2.0 | 6.0 | 0.00 | 0.05 | 0.01 | 92 | 1022.1 |
| 20260902135533 | 61 | 0 | 1.0 | 5.0 | 0.00 | 0.08 | 0.01 | 92 | 1021.9 |
| 20260902135026 | 61 | 157 | 1.0 | 5.0 | 0.00 | 0.08 | 0.01 | 92 | 1021.9 |
| 20260902134545 | 61 | 0 | 1.0 | 5.0 | 0.00 | 0.08 | 0.01 | 94 | 1021.7 |
| 20260902134027 | 61 | 142 | 1.0 | 5.0 | 0.00 | 0.08 | 0.01 | 94 | 1021.6 |
| 20260902133530 | 60 | 159 | 1.0 | 9.0 | 0.00 | 0.08 | 0.01 | 94 | 1021.6 |
| 20260902133049 | 60 | 0 | 2.0 | 9.0 | 0.00 | 0.08 | 0.01 | 94 | 1021.5 |
| 20260902132532 | 60 | 177 | 1.0 | 5.0 | 0.00 | 0.08 | 0.01 | 95 | 1021.5 |
| 20260902132028 | 60 | 155 | 1.0 | 5.0 | 0.00 | 0.08 | 0.01 | 96 | 1021.3 |
| 20260902131541 | 60 | 169 | 1.0 | 5.0 | 0.00 | 0.08 | 0.01 | 96 | 1021.4 |
| 20260902131029 | 60 | 183 | 0.0 | 3.0 | 0.00 | 0.08 | 0.01 | 96 | 1021.5 |
| 20260902130526 | 60 | 165 | 0.0 | 3.0 | 0.00 | 0.08 | 0.01 | 96 | 1021.5 |
| 20260902130044 | 59 | 176 | 0.0 | 4.0 | 0.00 | 0.08 | 0.01 | 96 | 1021.7 |
| 20260902125529 | 59 | 0 | 1.0 | 4.0 | 0.00 | 0.22 | 0.01 | 96 | 1021.7 |
| 20260902125026 | 59 | 155 | 0.0 | 3.0 | 0.00 | 0.22 | 0.01 | 97 | 1021.9 |
| 20260902124539 | 59 | 137 | 1.0 | 4.0 | 0.00 | 0.22 | 0.01 | 97 | 1021.7 |
| 20260902124027 | 59 | 148 | 0.0 | 4.0 | 0.00 | 0.22 | 0.01 | 97 | 1021.7 |
| 20260902123529 | 59 | 0 | 0.0 | 5.0 | 0.00 | 0.22 | 0.01 | 97 | 1021.7 |
| 20260902123047 | 59 | 157 | 1.0 | 5.0 | 0.00 | 0.22 | 0.01 | 97 | 1021.7 |
| 20260902122527 | 59 | 168 | 1.0 | 4.0 | 0.00 | 0.22 | 0.01 | 97 | 1021.7 |
| 20260902122029 | 59 | 157 | 1.0 | 2.0 | 0.00 | 0.22 | 0.01 | 97 | 1021.8 |
| 20260902121544 | 59 | 0 | 0.0 | 2.0 | 0.00 | 0.22 | 0.01 | 97 | 1021.8 |
| 20260902121028 | 59 | 0 | 0.0 | 3.0 | 0.00 | 0.22 | 0.01 | 97 | 1021.7 |
| 20260902120530 | 58 | 150 | 0.0 | 3.0 | 0.00 | 0.22 | 0.01 | 97 | 1021.7 |
| 20260902120040 | 58 | 0 | 0.0 | 3.0 | 0.00 | 0.22 | 0.01 | 97 | 1021.7 |
| 20260902115533 | 58 | 0 | 0.0 | 4.0 | 0.00 | 0.35 | 0.01 | 97 | 1021.7 |
| 20260902115027 | 58 | 166 | 0.0 | 4.0 | 0.00 | 0.35 | 0.01 | 97 | 1021.5 |
| 20260902114539 | 58 | 0 | 0.0 | 1.0 | 0.00 | 0.35 | 0.01 | 97 | 1021.7 |
| 20260902114030 | 58 | 0 | 0.0 | 1.0 | 0.00 | 0.35 | 0.01 | 97 | 1021.6 |
| 20260902113529 | 58 | 0 | 0.0 | 1.0 | 0.00 | 0.35 | 0.01 | 97 | 1021.8 |
| 20260902113037 | 58 | 0 | 0.0 | 0.0 | 0.00 | 0.35 | 0.01 | 97 | 1021.9 |
| 20260902112527 | 58 | 0 | 0.0 | 0.0 | 0.00 | 0.35 | 0.01 | 97 | 1021.9 |
| 20260902112029 | 58 | 0 | 0.0 | 0.0 | 0.00 | 0.35 | 0.01 | 97 | 1021.9 |
| 20260902111549 | 58 | 0 | 0.0 | 0.0 | 0.00 | 0.35 | 0.01 | 97 | 1022.0 |
| 20260902111028 | 58 | 0 | 0.0 | 0.0 | 0.00 | 0.35 | 0.01 | 97 | 1022.0 |
| 20260902110530 | 58 | 0 | 0.0 | 0.0 | 0.00 | 0.35 | 0.01 | 97 | 1021.8 |
| 20260902110039 | 58 | 0 | 0.0 | 0.0 | 0.00 | 0.35 | 0.01 | 97 | 1021.6 |
| 20260902105528 | 58 | 0 | 0.0 | 0.0 | 0.00 | 0.35 | 0.01 | 97 | 1021.5 |
| 20260902105028 | 58 | 0 | 0.0 | 0.0 | 0.00 | 0.35 | 0.01 | 97 | 1021.5 |
| 20260902104541 | 58 | 0 | 0.0 | 0.0 | 0.00 | 0.35 | 0.01 | 97 | 1021.5 |
| 20260902104030 | 58 | 0 | 0.0 | 0.0 | 0.00 | 0.35 | 0.01 | 97 | 1021.5 |
| 20260902103631 | 58 | 0 | 0.0 | 0.0 | 0.00 | 0.35 | 0.01 | 97 | 1021.4 |
| 20260902103044 | 58 | 0 | 0.0 | 0.0 | 0.00 | 0.35 | 0.01 | 97 | 1021.3 |
| 20260902102530 | 58 | 0 | 0.0 | 1.0 | 0.00 | 0.35 | 0.01 | 97 | 1021.3 |
| 20260902102029 | 58 | 0 | 0.0 | 1.0 | 0.00 | 0.35 | 0.01 | 97 | 1021.3 |
| 20260902101541 | 58 | 30 | 0.0 | 1.0 | 0.00 | 0.35 | 0.01 | 97 | 1021.1 |
| 20260902101033 | 58 | 0 | 0.0 | 2.0 | 0.00 | 0.35 | 0.01 | 97 | 1021.0 |
| 20260902100528 | 58 | 55 | 0.0 | 2.0 | 0.00 | 0.35 | 0.01 | 97 | 1021.0 |
| 20260902100042 | 58 | 27 | 0.0 | 3.0 | 0.00 | 0.35 | 0.01 | 97 | 1021.1 |
| 20260902095531 | 58 | 40 | 0.0 | 3.0 | 0.00 | 0.35 | 0.01 | 97 | 1021.1 |
| 20260902095030 | 58 | 360 | 1.0 | 3.0 | 0.00 | 0.35 | 0.01 | 97 | 1021.1 |
| 20260902094555 | 58 | 5 | 0.0 | 3.0 | 0.00 | 0.35 | 0.01 | 97 | 1021.1 |
| 20260902094030 | 58 | 0 | 0.0 | 3.0 | 0.00 | 0.35 | 0.01 | 97 | 1021.0 |
| 20260902093529 | 58 | 31 | 0.0 | 3.0 | 0.00 | 0.35 | 0.01 | 97 | 1021.1 |
| 20260902093053 | 58 | 0 | 0.0 | 1.0 | 0.00 | 0.35 | 0.01 | 97 | 1021.0 |
| 20260902092530 | 58 | 0 | 0.0 | 2.0 | 0.00 | 0.35 | 0.01 | 97 | 1020.8 |
| 20260902092033 | 58 | 0 | 0.0 | 2.0 | 0.00 | 0.35 | 0.01 | 97 | 1020.7 |
| 20260902091552 | 58 | 0 | 0.0 | 1.0 | 0.00 | 0.35 | 0.01 | 97 | 1020.8 |
| 20260902091028 | 59 | 0 | 0.0 | 2.0 | 0.00 | 0.35 | 0.01 | 97 | 1020.8 |
| 20260902090530 | 59 | 0 | 0.0 | 2.0 | 0.00 | 0.35 | 0.01 | 97 | 1020.9 |
| 20260902090049 | 59 | 144 | 0.0 | 2.0 | 0.00 | 0.35 | 0.01 | 97 | 1020.8 |
| 20260902085528 | 59 | 0 | 0.0 | 1.0 | 0.00 | 0.35 | 0.01 | 97 | 1020.9 |
| 20260902085029 | 59 | 0 | 0.0 | 1.0 | 0.00 | 0.35 | 0.01 | 97 | 1020.8 |